www.pogodaiklimat.ru

Погода и климат >> Архив погоды >> Мексика >> Фелипе-Каррильо-Пуэрто


ПОГОДА в Фелипе-Каррильо-Пуэрто

  • Прогноз погоды в Фелипе-Каррильо-Пуэрто
  • Монитор погоды в Фелипе-Каррильо-Пуэрто

АРХИВ ПОГОДЫ в Фелипе-Каррильо-Пуэрто

Время (UTC), дата Ветер
(напр.,м/с)
 
Видим.   Явления Облачность Т
(С)
Тd
(С)
f
(%)
Тe
(С)
Тes
(С)
Комфортность P
(гПа)
Po
(гПа)
Тmin
(С)
Tmax
(С)
R
(мм)
R24
(мм)
S
(см)
15 11.02 В 1 10 км 1/1 240 м
[Cu med, cong]
+26.5 +22.5 79 +35 +43 очень
душно
1016.2 1015.0
18 11.02 ЮВ 1 10 км 4/4 240 м
[Cu med, cong]
+30.6 +21.5 58 +39 +49 очень
душно
1014.3 1013.1 +19.4 +31.2
12 12.02 штиль 0 5000 м 3/3 240 м
[Cu med, cong]
+21.4 +20.8 96 +27 +27 душно 1012.5 1011.3 +19.5 +31.2
15 12.02 В 1 10 км 3/3 240 м
[Cu med, cong]
+28.2 +24.5 80 +40 +46 очень
душно
1014.1 1012.9
18 12.02 В 1 10 км 4/4 240 м
[Cu med, cong]
+30.2 +23.2 66 +40 +51 опасность
солнечного
удара
1012.6 1011.5 +19.5 +31.7
12 13.02 В 1 5000 м 3/3 240 м
[Cu med, cong]
+22.2 +21.6 96 +29 +29 очень
душно
1015.0 1013.8 +19.0 +31.7
15 13.02 СВ 1 10 км 4/4 240 м
[Cu med, cong]
+25.2 +21.1 78 +32 +37 очень
душно
1016.6 1015.4
18 13.02 СВ 1 10 км 5/5 240 м
[Cu med, cong]
+27.7 +21.2 68 +35 +44 очень
душно
1016.7 1015.5 +19.0 +28.2
21 13.02 В 3 10 км 4/4 240 м
[Cu med, cong]
+29.0 +20.2 59 +35 +39 очень
душно
1014.5 1013.4
00 14.02 СВ 2 10 км 3/3 240 м
[Cu med, cong]
+24.8 +21.2 80 +31 +31 очень
душно
1016.1 1015.0 +19.0 +29.8
15 14.02 СВ 1 10 км 1/1 240 м
[Cu med, cong]
+22.6 +19.3 82 +29 +37 очень
душно
1017.5 1016.3
18 14.02 ЮВ 1 10 км 3/3 240 м
[Cu med, cong]
+29.6 +18.6 52 +35 +48 очень
душно
1016.0 1014.9 +16.5 +31.2
21 14.02 В 1 10 км 1/1 240 м
[Cu med, cong]
+31.4 +17.6 44 +36 +43 очень
душно
1012.5 1011.3
00 15.02 В 1 10 км 1/1 240 м
[Cu med, cong]
+27.8 +20.5 65 +35 +35 очень
душно
1013.2 1012.0 +16.5 +32.6
12 15.02 штиль 0 5000 м 1/1 240 м
[Cu med, cong]
+17.6 +16.9 96 +18 +18 1013.6 1012.4 +16.0
15 15.02 СВ 1 10 км 1/1 240 м
[Cu med, cong]
+24.0 +18.3 70 +28 +37 душно 1014.7 1013.5
18 15.02 В 1 10 км 1/1 240 м
[Cu med, cong]
+30.6 +16.4 42 +34 +51 опасность
солнечного
удара
1013.5 1012.3 +16.0 +31.7
21 15.02 СВ 2 10 км 1/1 240 м
[Cu med, cong]
+31.6 +19.8 50 +38 +44 очень
душно
1011.5 1010.3
00 16.02 В 1 10 км 1/1 240 м
[Cu med, cong]
+27.8 +19.5 61 +34 +34 очень
душно
1011.8 1010.7 +16.0 +32.8
12 16.02 штиль 0 5000 м 1/1 240 м
[Cu med, cong]
+17.4 +17.1 98 +17 +17 1011.7 1010.5 +15.6 +32.8
15 16.02 СВ 1 10 км 1/1 240 м
[Cu med, cong]
+25.8 +19.6 69 +31 +40 очень
душно
1012.7 1011.5
18 16.02 В 1 10 км 1/1 240 м
[Cu med, cong]
+31.0 +19.8 51 +37 +54 опасность
солнечного
удара
1011.3 1010.1 +15.6 +31.9
12 17.02 штиль 0 5000 м 1/1 240 м
[Cu med, cong]
+20.0 +19.4 96 +23 +23 комфорт 1009.9 1008.7 +15.5 +31.9
15 17.02 В 1 10 км 1/1 240 м
[Cu med, cong]
+25.8 +21.9 79 +33 +42 очень
душно
1011.3 1010.1
18 17.02 В 1 10 км 4/4 240 м
[Cu med, cong]
+31.2 +22.9 61 +41 +53 опасность
перегрева
1010.4 1009.2 +15.5 +31.7

 

Местоположение метеостанции Фелипе-Каррильо-Пуэрто (Мексика): широта 19.70 долгота -87.90 высота над уровнем моря 12 м.

В архиве по умолчанию представлена погода в Фелипе-Каррильо-Пуэрто за последнюю неделю. Архивные данные за месяц целиком и за предыдущие месяцы, начиная с января 2011 года, Вы можете получить, выбрав интересующий диапазон дат из раскрывающегося списка и нажав кнопку "Ввод!".


*Определитесь, кто Вы:
робот инопланетянин человек

Внимание! Время в таблицах - всемирное. Для получения местного времени необходимо прибавить поправку, которая равна -6 ч.

Смотрите также архив погоды в соседних городах и на ближайших метеорологических станциях:

Погода в Вальядолиде (Мексика) (113 км)
Погода в Четумале (Мексика) (142 км)
Погода в Мериде (Мексика) (231 км)
Погода в Мериде 2 (Мексика) (237 км)
Погода в Белизе (Белиз) (245 км)
Погода в Прогресо (Мексика) (255 км)
Погода в Кампече (Мексика) (278 км)
Погода во Флоресе (Гватемала) (373 км)
Погода в Кабо-Сан-Антонио (Куба) (390 км)
Погода на Роатане (Гондурас) (404 км)

Пояснения к столбцам:

Ветер - указаны скорость ветра в м/с - средняя за 10 мин, порывы в срок и между сроками (в фигурных скобках) и направление, откуда дует ветер: С - северный, СВ - северо-восточный, В - восточный, ЮВ - юго-восточный, Ю - южный, ЮЗ - юго-западный, З - западный, СЗ - северо-западный.
Видимость - горизонтальная дальность видимости в метрах или километрах. При видимости от 1 до 10 км при отсутствии осадков обычно наблюдается дымка, при ухудшении видимости до 1 км и менее - туман. В сухую погоду видимость может ухудшаться дымом, пылью или мглою.
Явления - указаны атмосферные явления, наблюдавшиеся в срок или в последний час перед сроком; фигурными скобками обозначены явления, наблюдавшиеся между сроками (за 1-3 часа до срока); квадратными скобками обозначены град или гололедные отложения с указанием их диаметра в мм.
Облачность - указаны через наклонную черту общая и нижняя облачность в баллах и высота нижней границы облаков в метрах; квадратными скобками обозначены формы облаков: Ci - перистые, Cs - перисто-слоистые, Cc - перисто-кучевые, Ac - высококучевые, As - высокослоистые, Sc - слоисто-кучевые, Ns - слоисто-дождевые, Cu - кучевые, Cb - кучево-дождевые. Подробнее классификацию облаков см. в Атласе облаков (PDF).
T - Температура воздуха - температура, измеренная на высоте 2 м над землей.
Td - Температура точки росы - температура, при понижении до которой содержащийся в воздухе водяной пар достигнет насыщения.
f - Относительная влажность воздуха - влажноcть воздуха, измеренная на высоте 2 м над землей.
Te - Эффективная температура - температура, которую ощущает одетый по сезону человек в тени. Характеристика душности погоды. При расчете учитывается влияние влажности воздуха и скорости ветра на теплоощущения человека.
Tes - Эффективная температура на солнце - температура, которую ощущает человек, с поправкой на солнечный нагрев. Характеристика знойности погоды. Зависит от высоты солнца над горизонтом, облачности и скорости ветра. Ночью, в пасмурную погоду, а также при ветре 12 м/с и более поправка равна нулю.
P - Атмосферное давление - приведенное к уровню моря атмосферное давление.
Po - Атмосферное давление - измеренное на уровне метеостанции атмосферное давление.
Tmin - Минимальная температура - минимум температуры воздуха на высоте 2 м над землей.
Tmax - Максимальная температура - максимум температуры воздуха на высоте 2 м над землей.
R - Количество осадков - Количество выпавших осадков за период времени, мм. При наведении курсора мыши на число - период времени, за который выпало указанное количество осадков.
R24 - Количество осадков - Количество выпавших осадков за 24 часа, мм.
S - Снежный покров - Высота снежного покрова, см. При наведении курсора мыши на число - состояние снежного покрова и степень покрытия местности в баллах.